{"data":{"norad_id":41188,"epoch":"2026-09-19T21:32:48.711264Z","epoch_age_seconds":66529,"freshness":"FRESH","line1":"1 41188U 15081K   26262.89778601  .00000241  00000+0  87115-4 0  9993","line2":"2 41188  47.0002  92.9775 0003014 277.5082  82.5461 14.58964959573950","mean_motion":14.58964959,"eccentricity":0.0003014,"inclination_deg":47.0002,"raan_deg":92.9775,"arg_perigee_deg":277.5082,"mean_anomaly_deg":82.5461,"bstar":8.7115e-5,"rev_number":57395,"period_min":98.70010867067,"perigee_km":694.38571658856,"apogee_km":698.65031863318,"semimajor_km":7074.6550176109,"source":"CELESTRAK","updated_at":"2026-09-20T09:00:44.911936Z"}}